Orbital Elements at Epoch 2459000.5 (2020-May-31.0) TDB
Reference: JPL 14 (heliocentric ecliptic J2000)
Element | Value | Uncertainty (1-sigma) | Units |
e | .1289482468422518 | 6.4308e-08 | |
a | 2.23683701027054 | 1.2957e-08 | au |
q | 1.94840079932429 | 1.4678e-07 | au |
i | 7.368688156558405 | 7.3533e-06 | deg |
node | 124.3456040715404 | 4.4208e-05 | deg |
peri | 247.1621841559969 | 5.2464e-05 | deg |
M | 14.67517898259492 | 2.7396e-05 | deg |
tp | 2458950.688359775823 (2020-Apr-11.18835978) | 9.2809e-05 | TDB |
period | 1221.940155004019 3.35 | 1.0617e-05 2.907e-08 | d yr |
n | .2946134461051539 | 2.5598e-09 | deg/d |
Q | 2.525273221216791 | 1.4628e-08 | au |
|
| | Orbit Determination Parameters
Additional Information
|